STARLINK-11744 [DTC]

Last updated on Thu Jul 03 2025 00:02:06 GMT+0000 (Coordinated Universal Time)

1 64380U 25127L 25183.61089754 .00439527 00000+0 17297-2 0 9994 2 64380 43.0020 154.4294 0001204 313.9865 46.0909 15.84934761 4148
UTC large
Height (km)
Speed (km/s)
/
Latitude / Longitude
Inclination (degrees)
Orbital Period (minutes)
Azimuth
Elevation
Range (km)
Doppler Factor

Next 0 passes for location: London (51.5072 / 0.1276)

Sorry there are no passes over London.